FW7227 Weather Reports


time (UTC)temp
C
wind
direction
speed
KPH
gust
KPH
rain 1hr
cm
rain 24hr
cm
rain mn
cm
humidity
%
barometer
mb
20260905213558 13 252 8.0 17.7 0.00 0.23 0.23 77 1023.3
20260905213106 13 360 6.4 20.9 0.00 0.23 0.23 77 1023.2
20260905212557 13 245 11.3 20.9 0.00 0.23 0.23 77 1023.2
20260905212058 13 287 9.7 17.7 0.00 0.23 0.23 77 1023.1
20260905211604 13 264 8.0 17.7 0.00 0.23 0.23 77 1023.1
20260905211057 13 360 9.7 19.3 0.00 0.23 0.23 77 1023.0
20260905210556 13 360 8.0 20.9 0.00 0.23 0.23 77 1022.9
20260905205558 13 360 11.3 19.3 0.00 0.23 0.23 77 1022.9
20260905205058 13 262 8.0 19.3 0.00 0.23 0.23 77 1022.8
20260905204606 13 276 9.7 19.3 0.00 0.23 0.23 77 1022.7
20260905204057 14 252 9.7 20.9 0.00 0.23 0.23 77 1022.7
20260905203559 14 360 8.0 20.9 0.00 0.23 0.23 77 1022.6
20260905203106 14 360 9.7 20.9 0.00 0.23 0.23 76 1022.7
20260905202600 14 279 6.4 22.5 0.00 0.23 0.23 76 1022.6
20260905202100 14 288 9.7 22.5 0.00 0.23 0.23 75 1022.5
20260905201613 14 257 9.7 20.9 0.00 0.23 0.23 75 1022.6
20260905201058 14 259 11.3 20.9 0.00 0.23 0.23 75 1022.5
20260905200557 14 281 9.7 20.9 0.00 0.23 0.23 75 1022.5
20260905200104 14 259 11.3 20.9 0.00 0.23 0.23 75 1022.6
20260905195556 15 263 12.9 19.3 0.00 0.23 0.23 75 1022.5
20260905195057 15 270 11.3 19.3 0.00 0.23 0.23 76 1022.4
20260905194607 15 360 8.0 19.3 0.00 0.23 0.23 75 1022.4
20260905194100 15 360 11.3 22.5 0.00 0.23 0.23 75 1022.4
20260905193559 15 360 9.7 22.5 0.00 0.23 0.23 75 1022.3
20260905193104 15 360 12.9 22.5 0.00 0.23 0.23 75 1022.2
20260905192558 15 360 8.0 19.3 0.00 0.23 0.23 75 1022.1
20260905192057 15 360 9.7 19.3 0.00 0.23 0.23 74 1022.1
20260905191610 15 360 11.3 20.9 0.00 0.23 0.23 74 1022.0
20260905191057 15 360 9.7 22.5 0.00 0.23 0.23 74 1021.9
20260905190556 15 360 9.7 22.5 0.00 0.23 0.23 74 1021.8
20260905190132 15 360 11.3 20.9 0.00 0.23 0.23 74 1021.8
20260905185556 15 360 11.3 20.9 0.00 0.23 0.23 74 1021.8
20260905185058 15 360 11.3 20.9 0.00 0.23 0.23 75 1021.8
20260905184620 15 360 11.3 20.9 0.00 0.23 0.23 74 1021.7
20260905184101 15 360 8.0 22.5 0.00 0.23 0.23 74 1021.6
20260905183559 15 360 11.3 22.5 0.00 0.23 0.23 74 1021.5
20260905183109 15 360 9.7 17.7 0.00 0.23 0.23 74 1021.4
20260905182557 15 360 8.0 22.5 0.00 0.23 0.23 73 1021.4
20260905182058 16 360 8.0 22.5 0.00 0.23 0.23 72 1021.2
20260905181603 16 360 9.7 24.1 0.00 0.23 0.23 71 1021.0
20260905181057 16 360 14.5 24.1 0.00 0.23 0.23 71 1020.9
20260905180557 16 360 9.7 25.7 0.00 0.23 0.23 71 1020.9
20260905180100 16 360 9.7 25.7 0.00 0.23 0.23 71 1020.9
20260905175557 16 360 11.3 25.7 0.00 0.33 0.23 71 1020.8
20260905175057 16 360 11.3 22.5 0.00 0.33 0.23 71 1020.8
20260905174603 16 360 11.3 22.5 0.00 0.33 0.23 71 1020.7
20260905174057 16 360 9.7 25.7 0.00 0.33 0.23 72 1020.7
20260905173601 16 360 11.3 25.7 0.00 0.33 0.23 72 1020.6
20260905173109 16 360 9.7 22.5 0.00 0.33 0.23 73 1020.6
20260905172559 16 360 8.0 17.7 0.00 0.33 0.23 74 1020.5
20260905172100 16 360 6.4 16.1 0.00 0.33 0.23 74 1020.5
20260905171603 16 360 4.8 20.9 0.00 0.33 0.23 74 1020.4
20260905171057 16 360 6.4 20.9 0.00 0.33 0.23 74 1020.4
20260905170557 16 360 11.3 20.9 0.00 0.33 0.23 75 1020.3
20260905170113 16 360 8.0 22.5 0.00 0.33 0.23 76 1020.1
20260905165557 16 360 9.7 22.5 0.00 0.81 0.23 75 1020.1
20260905165059 16 360 9.7 22.5 0.00 0.81 0.23 76 1020.0
20260905164559 16 360 8.0 29.0 0.00 0.81 0.23 76 1020.0
20260905164057 16 360 11.3 29.0 0.00 0.81 0.23 76 1020.0
20260905163557 16 360 11.3 24.1 0.00 0.81 0.23 76 1019.9
20260905163105 16 360 11.3 24.1 0.00 0.81 0.23 77 1019.8
20260905162558 16 360 9.7 27.4 0.00 0.81 0.23 79 1019.8
20260905162058 16 360 11.3 32.2 0.00 0.81 0.23 80 1019.7
20260905161604 16 360 9.7 32.2 0.00 0.81 0.23 80 1019.6
20260905161057 16 360 16.1 32.2 0.00 0.81 0.23 79 1019.5
20260905160556 16 360 14.5 32.2 0.00 0.81 0.23 78 1019.6
20260905160100 17 360 16.1 32.2 0.00 0.79 0.20 75 1019.5
20260905155556 17 360 9.7 25.7 0.00 1.09 0.20 74 1019.4
20260905155056 17 360 9.7 27.4 0.00 1.09 0.20 73 1019.3
20260905154558 17 360 12.9 27.4 0.00 1.09 0.20 72 1019.3
20260905154058 17 360 12.9 27.4 0.00 1.09 0.20 72 1019.2
20260905153558 17 295 9.7 22.5 0.00 1.09 0.20 74 1019.1
20260905153104 18 360 11.3 24.1 0.00 1.09 0.20 72 1019.1
20260905152556 18 360 11.3 24.1 0.00 1.09 0.20 72 1019.1
20260905152057 17 360 14.5 22.5 0.00 1.09 0.20 74 1019.0
20260905151603 17 360 8.0 25.7 0.00 1.09 0.20 75 1019.0
20260905151057 17 360 11.3 27.4 0.00 1.09 0.20 75 1018.8
20260905150556 17 360 16.1 33.8 0.00 1.09 0.20 74 1018.8
20260905150058 17 360 16.1 33.8 0.00 1.09 0.20 74 1018.8
20260905145557 17 360 17.7 35.4 0.00 1.24 0.20 73 1018.7
20260905145056 17 360 19.3 35.4 0.00 1.24 0.20 72 1018.7
20260905144602 17 277 16.1 40.2 0.00 1.24 0.20 71 1018.6
20260905144057 17 269 19.3 41.8 0.00 1.24 0.20 71 1018.6
20260905143556 17 277 20.9 41.8 0.00 1.24 0.20 70 1018.4
20260905143103 18 234 17.7 38.6 0.00 1.24 0.20 71 1018.4
20260905142600 18 360 19.3 46.7 0.00 1.24 0.20 70 1018.3
20260905142057 18 360 17.7 46.7 0.00 1.24 0.20 71 1018.1
20260905141629 18 360 24.1 46.7 0.00 1.24 0.20 70 1018.1
20260905141059 18 263 22.5 35.4 0.00 1.24 0.20 72 1018.1
20260905140600 18 250 16.1 33.8 0.00 1.24 0.20 74 1018.1
20260905140058 18 281 19.3 40.2 0.00 1.24 0.20 73 1018.2
20260905135558 18 360 22.5 40.2 0.00 1.60 0.20 74 1018.1
20260905135056 18 360 14.5 43.5 0.00 1.60 0.20 77 1018.2
20260905134603 17 360 22.5 43.5 0.05 1.60 0.20 76 1018.2
20260905134056 17 360 24.1 40.2 0.08 1.60 0.20 77 1018.2
20260905133557 17 360 19.3 40.2 0.18 1.60 0.20 78 1018.2
20260905133059 17 360 16.1 35.4 0.18 1.60 0.20 80 1018.3
20260905132557 17 360 20.9 35.4 0.18 1.60 0.20 82 1018.2
20260905132057 16 360 16.1 35.4 0.20 1.60 0.20 83 1018.1
20260905131632 16 360 17.7 33.8 0.20 1.60 0.20 85 1018.1
20260905131058 16 360 16.1 30.6 0.20 1.60 0.20 86 1018.1
20260905130558 15 360 12.9 24.1 0.20 1.60 0.20 87 1018.1
20260905130108 15 360 12.9 24.1 0.20 1.60 0.20 88 1018.2
20260905125556 15 360 11.3 33.8 0.20 1.60 0.20 89 1018.1
20260905125056 15 360 11.3 33.8 0.20 1.60 0.20 89 1018.1
20260905124607 15 360 14.5 33.8 0.15 1.55 0.15 86 1018.3
20260905124056 15 360 8.0 22.5 0.13 1.52 0.13 86 1018.1
20260905123556 16 360 8.0 24.1 0.03 1.42 0.03 81 1018.0
20260905123111 16 360 14.5 27.4 0.03 1.42 0.03 79 1017.7
20260905122557 16 360 12.9 27.4 0.00 1.40 0.00 77 1017.7
20260905122056 17 360 8.0 32.2 0.00 1.40 0.00 74 1017.5
20260905121558 17 360 17.7 32.2 0.00 1.40 0.00 71 1017.5
20260905121057 18 360 19.3 32.2 0.00 1.40 0.00 68 1017.3
20260905120557 18 360 17.7 30.6 0.00 1.40 0.00 68 1017.2
20260905120107 18 360 16.1 30.6 0.00 1.40 0.00 67 1017.2
20260905115556 19 258 16.1 32.2 0.00 1.40 0.00 67 1017.2
20260905115056 18 360 14.5 32.2 0.00 1.40 0.00 69 1017.2
20260905114606 18 360 16.1 32.2 0.00 1.40 0.00 71 1017.3
20260905114057 18 288 14.5 25.7 0.00 1.40 0.00 73 1017.3
20260905113558 17 233 12.9 27.4 0.00 1.40 0.00 74 1017.4
20260905113110 18 259 14.5 32.2 0.00 1.40 0.00 71 1017.4
20260905112557 18 256 19.3 32.2 0.00 1.40 0.00 70 1017.1
20260905112056 18 298 17.7 32.2 0.00 1.40 0.00 66 1017.1
20260905111606 18 236 16.1 32.2 0.00 1.40 0.00 66 1017.0
20260905111056 18 280 16.1 32.2 0.00 1.40 0.00 67 1017.2
20260905110557 18 281 17.7 41.8 0.00 1.40 0.00 67 1017.1
20260905110104 18 301 17.7 41.8 0.00 1.40 0.00 66 1017.0
20260905105556 18 239 14.5 38.6 0.00 1.40 0.00 67 1017.0
20260905105058 18 298 16.1 37.0 0.00 1.40 0.00 67 1017.1
20260905104604 18 240 16.1 37.0 0.00 1.40 0.00 66 1017.1
20260905104057 18 263 19.3 37.0 0.00 1.40 0.00 66 1017.2
20260905103558 18 242 22.5 33.8 0.00 1.40 0.00 66 1017.1
20260905103102 18 241 14.5 27.4 0.00 1.40 0.00 67 1017.1
20260905102556 18 244 14.5 35.4 0.00 1.40 0.00 67 1017.1
20260905102058 18 233 20.9 35.4 0.00 1.40 0.00 66 1017.1
20260905101622 18 238 22.5 33.8 0.00 1.40 0.00 67 1017.0
20260905101059 18 246 19.3 35.4 0.00 1.40 0.00 67 1017.1
20260905100557 18 279 17.7 35.4 0.00 1.40 0.00 67 1017.0
20260905100059 18 230 20.9 35.4 0.00 1.40 0.00 67 1017.0
20260905095557 18 246 16.1 33.8 0.00 1.40 0.00 67 1017.0
20260905095056 18 246 16.1 33.8 0.00 1.40 0.00 67 1016.8
20260905094607 18 252 19.3 38.6 0.00 1.40 0.00 67 1017.0
20260905094056 18 242 17.7 40.2 0.00 1.40 0.00 69 1017.0
20260905093556 18 238 22.5 40.2 0.00 1.40 0.00 68 1017.0
20260905093103 18 234 16.1 38.6 0.00 1.40 0.00 72 1016.9
20260905092556 18 270 16.1 38.6 0.00 1.40 0.00 70 1016.9
20260905092055 18 258 20.9 35.4 0.00 1.40 0.00 71 1016.9
20260905091629 18 246 20.9 35.4 0.00 1.40 0.00 71 1016.8
20260905091056 17 249 11.3 35.4 0.00 1.40 0.00 73 1016.7
20260905090556 17 234 17.7 35.4 0.00 1.40 0.00 73 1016.6
20260905085557 17 259 12.9 38.6 0.00 1.40 0.00 76 1016.7
20260905085057 17 292 16.1 38.6 0.00 1.40 0.00 76 1016.8
20260905084619 17 242 19.3 37.0 0.00 1.40 0.00 75 1016.9
20260905084056 17 257 17.7 35.4 0.00 1.40 0.00 75 1016.9
20260905083556 17 286 16.1 32.2 0.00 1.40 0.00 74 1016.8
20260905083101 17 272 14.5 37.0 0.00 1.40 0.00 74 1016.7
20260905082557 17 279 16.1 37.0 0.00 1.40 0.00 73 1016.5
20260905082056 17 252 16.1 32.2 0.00 1.40 0.00 74 1016.4
20260905081559 17 224 14.5 30.6 0.00 1.40 0.00 74 1016.4
20260905081057 17 239 16.1 35.4 0.00 1.40 0.00 76 1016.4
20260905080556 17 263 17.7 35.4 0.00 1.40 0.00 76 1016.4
20260905080109 17 265 19.3 35.4 0.00 1.40 0.00 76 1016.3
20260905075559 17 268 17.7 33.8 0.00 1.40 0.00 76 1016.3
20260905075057 17 282 12.9 30.6 0.00 1.40 0.00 77 1016.2
20260905074601 16 255 14.5 30.6 0.00 1.40 0.00 77 1016.3
20260905074056 16 262 16.1 29.0 0.00 1.40 0.00 77 1016.2
20260905073556 16 252 12.9 29.0 0.00 1.40 0.00 78 1016.2
20260905073100 16 285 9.7 30.6 0.00 1.40 0.00 79 1016.1
20260905072558 16 272 16.1 30.6 0.00 1.40 0.00 78 1016.1
20260905072057 16 252 14.5 30.6 0.00 1.40 0.00 79 1016.0
20260905071605 16 246 12.9 25.7 0.00 1.40 0.00 80 1015.9
20260905071058 16 240 12.9 25.7 0.00 1.40 0.00 80 1016.0
20260905070556 16 279 12.9 25.7 0.00 1.40 0.00 81 1015.9
20260905070106 15 238 11.3 24.1 0.00 1.40 0.00 82 1015.7
20260905065556 15 248 14.5 24.1 0.00 1.40 0.00 82 1015.8
20260905065056 15 262 11.3 25.7 0.00 1.40 0.00 82 1015.8
20260905064559 15 234 14.5 27.4 0.00 1.40 0.00 83 1015.7
20260905064058 15 226 11.3 29.0 0.00 1.40 0.00 83 1015.6
20260905063557 15 240 12.9 29.0 0.00 1.40 0.00 84 1015.6
20260905063059 15 254 12.9 29.0 0.00 1.40 0.00 85 1015.5
20260905062557 14 234 11.3 29.0 0.00 1.40 0.00 85 1015.5
20260905062058 14 259 12.9 29.0 0.00 1.40 0.00 85 1015.5
20260905061618 13 221 8.0 19.3 0.00 1.40 0.00 86 1015.5
20260905061057 13 236 6.4 17.7 0.00 1.40 0.00 87 1015.5
20260905060557 13 239 8.0 20.9 0.00 1.40 0.00 87 1015.4
20260905060107 13 266 9.7 20.9 0.00 1.40 0.00 87 1015.4
20260905055558 13 236 11.3 19.3 0.00 1.40 0.00 87 1015.5
20260905055057 13 237 9.7 20.9 0.00 1.40 0.00 87 1015.5
20260905054605 13 240 8.0 20.9 0.00 1.40 0.00 88 1015.4
20260905054058 13 239 11.3 24.1 0.00 1.40 0.00 88 1015.4
20260905053558 13 238 8.0 24.1 0.00 1.40 0.00 88 1015.4
20260905053113 13 247 6.4 19.3 0.00 1.40 0.00 88 1015.4
20260905052558 13 248 11.3 19.3 0.00 1.40 0.00 88 1015.3
20260905052058 13 247 9.7 19.3 0.00 1.40 0.00 88 1015.3
20260905051605 13 254 9.7 17.7 0.00 1.40 0.00 88 1015.2
20260905051057 13 245 9.7 17.7 0.00 1.40 0.00 88 1015.2
20260905050558 13 246 9.7 17.7 0.00 1.40 0.00 88 1015.1
20260905050059 13 232 9.7 16.1 0.00 1.40 0.00 88 1015.1
20260905045557 13 246 6.4 16.1 0.00 1.40 0.00 88 1015.0
20260905045057 13 240 9.7 16.1 0.00 1.40 0.00 88 1015.0
20260905044605 13 238 8.0 17.7 0.00 1.40 0.00 87 1015.0
20260905044058 13 242 8.0 17.7 0.00 1.40 0.00 87 1015.0
20260905043558 13 240 8.0 17.7 0.00 1.40 0.00 87 1015.0
20260905043100 13 250 9.7 20.9 0.00 1.40 0.00 87 1014.9
20260905042601 13 229 11.3 22.5 0.00 1.40 0.00 87 1014.9
20260905042058 13 223 9.7 22.5 0.00 1.40 0.00 87 1014.9
20260905041611 13 269 9.7 22.5 0.00 1.40 0.00 87 1014.7
20260905041058 13 217 8.0 22.5 0.00 1.40 0.00 87 1014.7
20260905040557 13 251 9.7 20.9 0.00 1.40 0.00 87 1014.7
20260905040105 13 243 9.7 20.9 0.00 1.40 0.00 87 1014.7
20260905035558 13 246 12.9 20.9 0.00 1.40 0.00 87 1014.7
20260905035057 13 261 9.7 22.5 0.00 1.40 0.00 87 1014.7
20260905034602 13 264 8.0 22.5 0.00 1.40 0.00 87 1014.7
20260905034057 13 259 9.7 25.7 0.00 1.40 0.00 87 1014.6
20260905033558 13 251 9.7 25.7 0.00 1.40 0.00 87 1014.4
20260905033101 13 237 12.9 22.5 0.00 1.40 0.00 87 1014.4
20260905032558 13 243 11.3 22.5 0.00 1.40 0.00 87 1014.4
20260905032101 13 230 9.7 22.5 0.00 1.40 0.00 87 1014.4
20260905031604 13 255 12.9 22.5 0.00 1.40 0.00 87 1014.3
20260905031057 13 230 12.9 22.5 0.00 1.40 0.00 87 1014.3
20260905030557 13 239 9.7 24.1 0.00 1.40 0.00 86 1014.3
20260905030107 13 252 9.7 24.1 0.00 1.40 0.00 86 1014.2
20260905025558 13 266 9.7 22.5 0.00 1.40 0.00 86 1014.2
20260905025057 13 239 11.3 24.1 0.00 1.40 0.00 86 1014.2
20260905024640 13 248 9.7 24.1 0.00 1.40 0.00 86 1014.1
20260905024102 14 257 11.3 20.9 0.00 1.40 0.00 86 1014.1
20260905023558 14 265 14.5 20.9 0.00 1.40 0.00 86 1014.1
20260905023105 13 252 11.3 25.7 0.00 1.40 0.00 86 1014.1
20260905022557 13 242 11.3 25.7 0.00 1.40 0.00 86 1014.1
20260905022057 14 250 9.7 25.7 0.00 1.40 0.00 85 1014.1
20260905021605 14 231 11.3 19.3 0.00 1.40 0.00 85 1014.1
20260905021057 14 263 11.3 22.5 0.00 1.40 0.00 85 1014.1
20260905020557 14 271 11.3 22.5 0.00 1.40 0.00 85 1014.1
20260905015557 14 211 11.3 24.1 0.00 1.40 0.00 85 1014.0
20260905015059 14 243 9.7 24.1 0.00 1.40 0.00 85 1013.9
20260905014605 14 236 11.3 22.5 0.00 1.40 0.00 85 1013.8
20260905014101 14 240 12.9 24.1 0.00 1.40 0.00 85 1013.8
20260905013558 14 246 12.9 24.1 0.00 1.40 0.00 85 1013.8
20260905013059 14 209 11.3 24.1 0.00 1.40 0.00 85 1013.8
20260905012558 14 240 11.3 24.1 0.00 1.40 0.00 85 1013.8
20260905012058 14 252 11.3 24.1 0.00 1.40 0.00 85 1013.8
20260905011602 14 245 11.3 24.1 0.00 1.40 0.00 85 1013.7
20260905011057 14 244 11.3 20.9 0.00 1.40 0.00 86 1013.8
20260905010601 14 250 9.7 22.5 0.00 1.40 0.00 86 1013.7
20260905010107 14 271 11.3 22.5 0.00 1.40 0.00 85 1013.8
20260905005557 14 268 11.3 22.5 0.00 1.40 0.00 85 1013.7
20260905005058 14 242 9.7 22.5 0.00 1.40 0.00 85 1013.8
20260905004606 14 287 9.7 20.9 0.00 1.40 0.00 85 1013.8
20260905004059 14 257 12.9 22.5 0.00 1.40 0.00 85 1013.7
20260905003557 14 259 14.5 22.5 0.00 1.40 0.00 85 1013.8
20260905003115 14 244 12.9 20.9 0.00 1.40 0.00 85 1013.7
20260905002558 14 259 11.3 24.1 0.00 1.40 0.00 85 1013.8
20260905002058 14 246 12.9 24.1 0.00 1.40 0.00 85 1013.7
20260905001600 14 256 11.3 24.1 0.00 1.40 0.00 85 1013.7
20260905001057 14 236 11.3 24.1 0.00 1.40 0.00 85 1013.7
20260905000558 14 250 9.7 22.5 0.00 1.40 0.00 85 1013.6
20260905000110 14 275 11.3 22.5 0.00 1.40 0.00 85 1013.6
20260904235557 14 283 11.3 25.7 0.00 1.40 0.00 85 1013.5
20260904235057 15 254 12.9 25.7 0.00 1.40 0.00 85 1013.6
20260904234607 15 257 12.9 25.7 0.00 1.40 0.00 85 1013.3
20260904234057 15 268 11.3 22.5 0.00 1.40 0.00 85 1013.3
20260904233557 15 265 11.3 22.5 0.00 1.40 0.00 85 1013.4
20260904233104 15 279 12.9 24.1 0.00 1.40 0.00 85 1013.3
20260904232558 15 265 11.3 27.4 0.00 1.40 0.00 85 1013.3
20260904232057 15 269 9.7 27.4 0.00 1.40 0.00 85 1013.3
20260904231600 15 256 12.9 25.7 0.00 1.40 0.00 85 1013.3
20260904231101 15 270 12.9 32.2 0.00 1.40 0.00 85 1013.2
20260904230558 15 271 16.1 32.2 0.00 1.40 0.00 85 1013.2
20260904230104 15 274 11.3 29.0 0.00 1.40 0.00 85 1013.1
20260904225557 15 260 14.5 24.1 0.00 1.40 0.00 85 1013.1
20260904225057 15 265 14.5 25.7 0.00 1.40 0.00 85 1013.0
20260904224605 15 256 12.9 25.7 0.00 1.40 0.00 85 1012.9
20260904224057 15 267 9.7 24.1 0.00 1.40 0.00 86 1012.9
20260904223557 15 261 11.3 25.7 0.00 1.40 0.00 86 1012.8
20260904223109 15 254 11.3 25.7 0.00 1.40 0.00 85 1012.7
20260904222557 15 230 14.5 27.4 0.00 1.40 0.00 85 1012.7
20260904222100 15 261 12.9 27.4 0.00 1.40 0.00 85 1012.7
20260904221615 15 287 14.5 27.4 0.00 1.40 0.00 86 1012.5
20260904221058 15 277 16.1 27.4 0.00 1.40 0.00 86 1012.5
20260904220558 15 267 12.9 27.4 0.00 1.40 0.00 87 1012.5
20260904220108 15 262 16.1 27.4 0.00 1.40 0.00 87 1012.3
20260904215558 15 261 9.7 24.1 0.00 1.47 1.40 87 1012.2
20260904215057 15 281 11.3 24.1 0.00 1.47 1.40 88 1012.2
20260904214609 15 260 11.3 24.1 0.00 1.47 1.40 88 1012.1
20260904214057 15 317 12.9 24.1 0.00 1.47 1.40 88 1012.0